User: anonymous   Login
Location: unspecified
(0.0000°N, 0.0000°E)
Time: 05:30:19
(UTC+02:00)
Language:

SL-16 R/B - Orbit

View from above orbital plane
View from above orbital plane
View from above satellite
View from above satellite

Ground track
Ground track

The orbit data is extracted from the following two-line orbital elements,

1 27006U 01056F   19199.40246476 -.00000054  00000-0 -11382-4 0  9999
2 27006  99.4252 331.4983 0015322 128.3603 307.0418 13.70963227880802
Epoch (UTC): 18 July 2019 09:39:32
Eccentricity: 0.0015322
inclination: 99.4252°
perigee height: 985 km
apogee height: 1007 km
right ascension of ascending node: 331.4983°
argument of perigee: 128.3603°
revolutions per day: 13.70963227
mean anomaly at epoch: 307.0418°
orbit number at epoch: 88080

The dashed part of the orbit path shows where the satellite is in the earth's shadow,  

DLR